Weather History for Leeuwarden, Netherlands

Change the Weather History Date:

Monday, December 10, 2012

  Actual Average Record
Temperature  
Mean Temperature 36 °F -  
Max Temperature 39 °F 40 °F 51 °F (1997)
Min Temperature 32 °F 32 °F 15 °F (2002)
Degree Days  
Heating Degree Days 30    
Moisture  
Dew Point 32 °F    
Average Humidity 83    
Maximum Humidity 93    
Minimum Humidity 57    
Precipitation  
Precipitation 0.08 in - - ()
Sea Level Pressure  
Sea Level Pressure 29.90 in    
Wind  
Wind Speed 17 mph ()    
Max Wind Speed 26 mph    
Max Gust Speed 33 mph    
Visibility 6.0 miles    
Events Rain , Snow    
Averages and records for this station are not official NWS values.
T = Trace of Precipitation, MM = Missing Value Source: Averaged Metar Reports

Daily Weather History Graph

Daily Weather History Graph

Search for Another Location

Airport:

Trip Planner

Search our weather history database for the weather conditions in past years. The results will help you decide how hot, cold, wet, or windy it might be!

Date:

Astronomy

Dec. 10, 2012 Rise Set
Actual Time 8:40 AM CET 4:19 PM CET
Civil Twilight 7:58 AM CET 5:01 PM CET
Nautical Twilight 7:13 AM CET 5:46 PM CET
Astronomical Twilight 6:31 AM CET 6:28 PM CET
Moon 4:45 AM CET (12/10) 2:13 PM CET (12/10)
Length of Visible Light 9h 02m
Length of Day
7h 38m
Waning Crescent, 12% of the Moon is Illuminated
Dec 10
Waning Crescent
Dec 13
New
Dec 20
First Quarter
Dec 28
Full
Jan 5
Last Quarter

Hourly Weather History & Observations

Time (CET) Temp. Windchill Dew Point Humidity Pressure Visibility Wind Dir Wind Speed Gust Speed Precip Events Conditions
12:12 AM 41.0 °F 31.9 °F 37.4 °F 87% 29.56 in 6.2 mi NW 19.6 mph - N/A   Drizzle
12:25 AM 41.0 °F 31.4 °F 37.4 °F 87% 29.56 in 6.2 mi NNW 21.9 mph 33.4 mph N/A   Overcast
12:51 AM 41.0 °F 32.2 °F 37.4 °F 87% 29.56 in 6.2 mi NNW 18.4 mph - N/A   Drizzle
12:55 AM 41.0 °F 32.2 °F 37.4 °F 87% 29.56 in 6.2 mi NNW 18.4 mph - N/A   Mostly Cloudy
1:00 AM 42 °F - 35 °F 70% 29.59 in 9 mi NNW 20.1 mph - - Rain Rain
1:25 AM 41.0 °F 32.2 °F 35.6 °F 81% 29.59 in 6.2 mi NNW 18.4 mph - N/A   Overcast
1:55 AM 41.0 °F 31.4 °F 35.6 °F 81% 29.59 in 6.2 mi NNW 21.9 mph - N/A   Mostly Cloudy
2:25 AM 41.0 °F 30.5 °F 35.6 °F 81% 29.62 in 6.2 mi NW 26.5 mph - N/A   Drizzle
2:55 AM 41.0 °F 31.6 °F 33.8 °F 76% 29.62 in 6.2 mi NNW 20.7 mph - N/A   Overcast
3:25 AM 41.0 °F 31.6 °F 33.8 °F 76% 29.62 in 6.2 mi NNW 20.7 mph - N/A   Overcast
3:55 AM 39.2 °F 29.0 °F 33.8 °F 81% 29.65 in 6.2 mi NNW 21.9 mph - N/A   Overcast
4:25 AM 41.0 °F 31.6 °F 33.8 °F 76% 29.65 in 6.2 mi NNW 20.7 mph - N/A   Overcast
4:55 AM 39.2 °F 29.3 °F 33.8 °F 81% 29.65 in 6.2 mi NNW 20.7 mph - N/A   Mostly Cloudy
5:09 AM 39.2 °F 29.0 °F 35.6 °F 87% 29.65 in 6.2 mi NW 21.9 mph - N/A   Mostly Cloudy
5:25 AM 39.2 °F 29.0 °F 33.8 °F 81% 29.68 in 6.2 mi NNW 21.9 mph - N/A Rain Light Rain
5:55 AM 39.2 °F 28.7 °F 33.8 °F 81% 29.68 in 6.2 mi NNW 23.0 mph - N/A Rain Light Rain
6:25 AM 39.2 °F 28.7 °F 33.8 °F 81% 29.68 in 6.2 mi NNW 23.0 mph - N/A   Mostly Cloudy
6:44 AM 39.2 °F 29.3 °F 33.8 °F 81% 29.68 in 6.2 mi NNW 20.7 mph - N/A   Drizzle
6:55 AM 39.2 °F 29.3 °F 35.6 °F 87% 29.68 in 6.2 mi NNW 20.7 mph - N/A   Mostly Cloudy
6:59 AM 39.2 °F 29.3 °F 35.6 °F 87% 29.68 in 6.2 mi NNW 20.7 mph - N/A   Mostly Cloudy
7:00 AM 39 °F - 35 °F 82% 29.72 in 11 mi NNW 20.1 mph - - Rain Light Rain Showers
7:08 AM 37.4 °F 26.9 °F 33.8 °F 87% 29.71 in - North 20.7 mph - N/A Rain Light Rain
7:12 AM 37.4 °F 28.2 °F 33.8 °F 87% 29.71 in 6.2 mi North 16.1 mph 28.8 mph N/A Rain Light Rain
7:25 AM 37.4 °F 30.3 °F 35.6 °F 93% 29.71 in 6.2 mi North 10.4 mph - N/A Rain Light Rain
7:55 AM 37.4 °F 28.9 °F 35.6 °F 93% 29.74 in 6.2 mi NNE 13.8 mph - N/A   Mostly Cloudy
8:13 AM 39.2 °F 32.0 °F 35.6 °F 87% 29.77 in 3.1 mi North 11.5 mph - N/A Rain Light Rain
8:17 AM 37.4 °F 28.9 °F 35.6 °F 93% 29.77 in 3.1 mi North 13.8 mph - N/A Rain Rain
8:25 AM 37.4 °F 28.9 °F 35.6 °F 93% 29.77 in 6.2 mi NE 13.8 mph - N/A Rain Light Rain
8:35 AM 39.2 °F 33.0 °F 35.6 °F 87% 29.77 in 6.2 mi NNE 9.2 mph - N/A   Mostly Cloudy
8:42 AM 39.2 °F 33.6 °F 35.6 °F 87% 29.77 in 4.3 mi NNE 8.1 mph - N/A   Mostly Cloudy
8:47 AM 39.2 °F 33.0 °F 35.6 °F 87% 29.77 in 6.2 mi NNE 9.2 mph - N/A Rain Light Rain
8:48 AM 39.2 °F 32.0 °F 35.6 °F 87% 29.80 in 6.2 mi NNE 11.5 mph 25.3 mph N/A Rain Light Rain
8:55 AM 39.2 °F 30.5 °F 37.4 °F 93% 29.80 in 6.2 mi NNE 16.1 mph - N/A Rain Light Rain
8:59 AM 39.2 °F 29.8 °F 37.4 °F 93% 29.80 in 6.2 mi NE 18.4 mph - N/A   Mostly Cloudy
9:00 AM 39.2 °F 30.2 °F 37.4 °F 93% 29.80 in 6.2 mi NNE 17.3 mph - N/A   Mostly Cloudy
9:16 AM 39.2 °F 29.6 °F 35.6 °F 87% 29.80 in 6.2 mi NNE 19.6 mph - N/A   Mostly Cloudy
9:25 AM 39.2 °F 30.2 °F 35.6 °F 87% 29.83 in 6.2 mi NNE 17.3 mph 28.8 mph N/A Rain Light Rain
9:28 AM 39.2 °F 30.2 °F 35.6 °F 87% 29.83 in 3.1 mi NNE 17.3 mph - N/A Rain Light Rain
9:33 AM 37.4 °F 27.5 °F 35.6 °F 93% 29.83 in - NNE 18.4 mph - N/A Rain Light Rain
9:41 AM 39.2 °F 29.8 °F 35.6 °F 87% 29.83 in 6.2 mi NNE 18.4 mph - N/A Rain Light Rain Showers
9:50 AM 39.2 °F 29.8 °F 35.6 °F 87% 29.83 in 6.2 mi NNE 18.4 mph - N/A   Mostly Cloudy
9:55 AM 39.2 °F 29.6 °F 35.6 °F 87% 29.86 in 6.2 mi NNE 19.6 mph - N/A   Mostly Cloudy
10:03 AM 39.2 °F 30.2 °F 35.6 °F 87% 29.86 in 6.2 mi NNE 17.3 mph - N/A   Light Drizzle
10:07 AM 39.2 °F 29.8 °F 35.6 °F 87% 29.86 in 6.2 mi NNE 18.4 mph - N/A   Light Drizzle
10:08 AM 39.2 °F 30.2 °F 35.6 °F 87% 29.86 in 6.2 mi NNE 17.3 mph - N/A   Mostly Cloudy
10:21 AM 39.2 °F 30.5 °F 33.8 °F 81% 29.86 in 6.2 mi NNE 16.1 mph - N/A   Light Drizzle
10:25 AM 39.2 °F 30.2 °F 33.8 °F 81% 29.86 in 6.2 mi NNE 17.3 mph - N/A   Light Drizzle
10:29 AM 39.2 °F 29.8 °F 33.8 °F 81% 29.86 in 6.2 mi NNE 18.4 mph - N/A   Light Drizzle
10:34 AM 39.2 °F 29.8 °F 33.8 °F 81% 29.89 in 6.2 mi NNE 18.4 mph - N/A   Light Drizzle
10:55 AM 37.4 °F 27.5 °F 33.8 °F 87% 29.89 in 6.2 mi NNE 18.4 mph - N/A   Drizzle
11:09 AM 37.4 °F 27.5 °F 33.8 °F 87% 29.92 in 6.2 mi NNE 18.4 mph - N/A   Light Drizzle
11:21 AM 37.4 °F 27.8 °F 33.8 °F 87% 29.92 in 6.2 mi NNE 17.3 mph - N/A   Light Drizzle
11:25 AM 37.4 °F 27.8 °F 33.8 °F 87% 29.92 in 6.2 mi NNE 17.3 mph - N/A   Drizzle
11:33 AM 37.4 °F 28.5 °F 33.8 °F 87% 29.92 in 6.2 mi NNE 15.0 mph - N/A   Mostly Cloudy
11:55 AM 37.4 °F 28.5 °F 33.8 °F 87% 29.95 in 6.2 mi NNE 15.0 mph - N/A   Mostly Cloudy
11:59 AM 37.4 °F 27.8 °F 33.8 °F 87% 29.95 in 6.2 mi NNE 17.3 mph 28.8 mph N/A   Overcast
12:03 PM 35.6 °F 24.8 °F 32.0 °F 87% 29.95 in 6.2 mi NNE 19.6 mph - N/A   Mostly Cloudy
12:11 PM 35.6 °F 25.5 °F 32.0 °F 87% 29.95 in 6.2 mi NNE 17.3 mph - N/A   Mostly Cloudy
12:15 PM 37.4 °F 28.2 °F 32.0 °F 81% 29.95 in 6.2 mi NNE 16.1 mph - N/A   Mostly Cloudy
12:19 PM 35.6 °F 25.5 °F 32.0 °F 87% 29.95 in 4.3 mi NNE 17.3 mph 28.8 mph N/A Rain Light Rain
12:25 PM 35.6 °F 24.8 °F 32.0 °F 87% 29.95 in 6.2 mi NNE 19.6 mph - N/A   Mostly Cloudy
12:29 PM 35.6 °F 24.8 °F 32.0 °F 87% 29.95 in 6.2 mi NNE 19.6 mph - N/A   Mostly Cloudy
12:36 PM 37.4 °F 27.5 °F 32.0 °F 81% 29.95 in 6.2 mi NNE 18.4 mph - N/A   Mostly Cloudy
12:49 PM 37.4 °F 28.5 °F 32.0 °F 81% 29.95 in 6.2 mi NNE 15.0 mph - N/A   Overcast
12:55 PM 37.4 °F 28.9 °F 32.0 °F 81% 29.98 in 6.2 mi NNE 13.8 mph - N/A   Overcast
1:00 PM 37 °F - 30 °F 69% 29.98 in 11 mi NNE 13.4 mph - - Rain Rain
1:25 PM 35.6 °F 25.9 °F 32.0 °F 87% 29.98 in 6.2 mi NNE 16.1 mph - N/A   Overcast
1:55 PM 37.4 °F 27.8 °F 32.0 °F 81% 29.98 in 6.2 mi NNE 17.3 mph - N/A   Overcast
2:25 PM 35.6 °F 27.5 °F 32.0 °F 87% 30.01 in 6.2 mi NNE 11.5 mph - N/A   Overcast
2:55 PM 37.4 °F 28.2 °F 28.4 °F 70% 30.01 in 6.2 mi North 16.1 mph - N/A   Mostly Cloudy
3:07 PM 37.4 °F 28.2 °F 28.4 °F 70% 30.01 in 6.2 mi North 16.1 mph - N/A   Mostly Cloudy
3:25 PM 35.6 °F 25.5 °F 30.2 °F 81% 30.01 in 6.2 mi NNE 17.3 mph - N/A   Mostly Cloudy
3:55 PM 35.6 °F 26.2 °F 28.4 °F 75% 30.04 in 6.2 mi NNE 15.0 mph - N/A   Overcast
4:25 PM 35.6 °F 26.6 °F 28.4 °F 75% 30.04 in 6.2 mi NNE 13.8 mph - N/A   Mostly Cloudy
4:33 PM 35.6 °F 26.2 °F 28.4 °F 75% 30.04 in 1.4 mi NNE 15.0 mph - N/A   Haze
4:37 PM 35.6 °F 26.2 °F 28.4 °F 75% 30.04 in 6.2 mi NNE 15.0 mph - N/A   Overcast
4:50 PM 35.6 °F 26.6 °F 28.4 °F 75% 30.06 in 6.2 mi NNE 13.8 mph - N/A   Mostly Cloudy
4:55 PM 35.6 °F 27.1 °F 28.4 °F 75% 30.06 in 6.2 mi NNE 12.7 mph - N/A   Mostly Cloudy
5:05 PM 35.6 °F 27.1 °F 28.4 °F 75% 30.06 in 6.2 mi NNE 12.7 mph - N/A   Mostly Cloudy
5:25 PM 35.6 °F 26.2 °F 26.6 °F 70% 30.06 in 6.2 mi NNE 15.0 mph - N/A   Overcast
5:55 PM 37.4 °F 28.5 °F 26.6 °F 65% 30.09 in 6.2 mi North 15.0 mph - N/A   Overcast
6:25 PM 35.6 °F 26.6 °F 28.4 °F 75% 30.09 in 6.2 mi NNE 13.8 mph - N/A   Mostly Cloudy
6:55 PM 35.6 °F 27.1 °F 26.6 °F 70% 30.09 in 6.2 mi North 12.7 mph - N/A   Mostly Cloudy
7:00 PM 36 °F - 26 °F 57% 30.11 in 19 mi North 13.4 mph - -   Unknown Precipitation
7:25 PM 35.6 °F 26.6 °F 28.4 °F 75% 30.09 in 6.2 mi NNE 13.8 mph - N/A   Mostly Cloudy
7:55 PM 35.6 °F 26.2 °F 26.6 °F 70% 30.12 in 6.2 mi North 15.0 mph - N/A   Mostly Cloudy
8:18 PM 33.8 °F 23.2 °F 28.4 °F 81% 30.12 in 3.7 mi NNE 17.3 mph - N/A   Haze
8:25 PM 35.6 °F 25.9 °F 28.4 °F 75% 30.12 in 6.2 mi NNE 16.1 mph - N/A   Mostly Cloudy
8:39 PM 35.6 °F 27.5 °F 28.4 °F 75% 30.12 in 6.2 mi North 11.5 mph - N/A   Scattered Clouds
8:55 PM 33.8 °F 24.3 °F 28.4 °F 81% 30.12 in 6.2 mi NNE 13.8 mph - N/A   Mostly Cloudy
9:25 PM 33.8 °F 23.2 °F 28.4 °F 81% 30.15 in 6.2 mi NNE 17.3 mph - N/A   Mostly Cloudy
9:50 PM 32.0 °F 20.8 °F 28.4 °F 87% 30.15 in 3.1 mi NE 17.3 mph - N/A   Haze
9:52 PM 32.0 °F 21.6 °F 28.4 °F 87% 30.15 in 1.8 mi NNE 15.0 mph - N/A Snow Light Snow
9:53 PM 32.0 °F 21.6 °F 30.2 °F 93% 30.15 in 1.8 mi NNE 15.0 mph - N/A Snow Light Snow
9:55 PM 32.0 °F 21.6 °F 28.4 °F 87% 30.15 in 1.8 mi NNE 15.0 mph - N/A Snow Light Snow
9:58 PM 32.0 °F 22.1 °F 30.2 °F 93% 30.15 in - NNE 13.8 mph - N/A Snow Light Snow
10:02 PM 32.0 °F 22.1 °F 30.2 °F 93% 30.15 in 3.1 mi North 13.8 mph - N/A Snow Light Snow
10:08 PM 33.8 °F 24.8 °F 32.0 °F 93% 30.15 in 5.6 mi North 12.7 mph - N/A Rain Rain
10:21 PM 33.8 °F 24.8 °F 32.0 °F 93% 30.15 in 6.2 mi NNE 12.7 mph - N/A   Mostly Cloudy
10:25 PM 33.8 °F 24.8 °F 32.0 °F 93% 30.15 in 6.2 mi NNE 12.7 mph - N/A   Mostly Cloudy
10:33 PM 33.8 °F 24.8 °F 28.4 °F 81% 30.15 in 6.2 mi NNE 12.7 mph - N/A   Mostly Cloudy
10:55 PM 33.8 °F 23.2 °F 26.6 °F 75% 30.18 in 3.1 mi NNE 17.3 mph - N/A   Haze
10:59 PM 33.8 °F 22.8 °F 28.4 °F 81% 30.18 in 5.6 mi North 18.4 mph - N/A Snow Light Snow
11:12 PM 35.6 °F 26.6 °F 26.6 °F 70% 30.18 in 6.2 mi North 13.8 mph 25.3 mph N/A   Mostly Cloudy
11:25 PM 33.8 °F 22.8 °F 26.6 °F 75% 30.18 in 6.2 mi North 18.4 mph - N/A   Mostly Cloudy
11:55 PM 33.8 °F 24.3 °F 26.6 °F 75% 30.18 in 6.2 mi North 13.8 mph - N/A   Mostly Cloudy